Port Angeles, WA
on Tuesday, January 1, 2013

Tuesday
Previous Day Next Day
Daily Summary
 ActualAverageRecord
Temperature
Mean Temperature °F °F  
Max Temperature 41°F 44°F 56°F (1963)
Min Temperature 36°F 32°F 14°F (1979)
Degree Days
Heating Degree Days 26    
Moisture
Dew Point 34°F   
Average Humidity 82    
Maximum Humidity 93    
Minimum Humidity 76    
Precipitation
Precipitation 0.00 in in in ()
Wind
Wind Speed 5 mph   
Max Wind Speed 8 mph   
Max Gust Speed mph   
Visibility 10 miles   
Events     
Averages and records for this station are not official NWS values.
Key: T is trace of precipitation, MM is missing value
Source: NWS Daily Summary
Seasonal Weather Averages
Time(PST)TemperatureDew PointHumidity Pressure Visibility Wind DirectionWind SpeedGust SpeedPrecipitationEvents Conditions
12:34 AM 39.0°F 35.1°F 86% 30.45 in 10.0 miles Calm Calm - N/A   Overcast
12:53 AM 39.0°F 36.0°F 89% 30.47 in 10.0 miles Calm Calm - N/A   Overcast
1:36 AM 37.9°F 35.1°F 89% 30.47 in 10.0 miles SW 4.6 mph - N/A   Overcast
1:53 AM 37.0°F 35.1°F 93% 30.48 in 10.0 miles SW 5.8 mph - N/A   Overcast
2:53 AM 39.0°F 35.1°F 86% 30.47 in 10.0 miles ESE 4.6 mph - N/A   Overcast
3:53 AM 39.9°F 35.1°F 83% 30.45 in 10.0 miles ESE 6.9 mph - N/A   Overcast
4:53 AM 39.9°F 34.0°F 79% 30.44 in 10.0 miles ESE 6.9 mph - N/A   Overcast
5:53 AM 39.0°F 34.0°F 82% 30.44 in 10.0 miles SSE 6.9 mph - N/A   Overcast
6:53 AM 39.0°F 33.1°F 79% 30.46 in 10.0 miles SSE 4.6 mph - N/A   Overcast
7:53 AM 39.0°F 33.1°F 79% 30.48 in 10.0 miles SSE 6.9 mph - N/A   Overcast
8:53 AM 39.0°F 33.1°F 79% 30.48 in 10.0 miles SSE 4.6 mph - N/A   Overcast
9:53 AM 39.9°F 34.0°F 79% 30.51 in 10.0 miles SE 3.5 mph - N/A   Overcast
10:53 AM 41.0°F 34.0°F 76% 30.49 in 10.0 miles SE 6.9 mph - N/A   Overcast
11:53 AM 41.0°F 34.0°F 76% 30.48 in 10.0 miles ESE 5.8 mph - N/A   Overcast
12:53 PM 41.0°F 34.0°F 76% 30.46 in 10.0 miles East 8.1 mph - N/A   Overcast
1:53 PM 39.9°F 34.0°F 79% 30.44 in 10.0 miles East 5.8 mph - N/A   Overcast
2:08 PM 39.9°F 34.0°F 79% 30.44 in 10.0 miles East 6.9 mph - N/A   Overcast
2:53 PM 39.9°F 34.0°F 79% 30.45 in 10.0 miles ESE 8.1 mph - N/A   Overcast
3:53 PM 39.9°F 34.0°F 79% 30.44 in 10.0 miles East 5.8 mph - N/A   Overcast
4:00 PM 39.9°F 34.0°F 79% 30.43 in 10.0 miles East 5.8 mph - N/A   Overcast
4:53 PM 39.9°F 33.1°F 77% 30.43 in 10.0 miles East 5.8 mph - N/A   Overcast
5:41 PM 37.0°F 32.0°F 82% 30.40 in 10.0 miles East 6.9 mph - N/A   Scattered Clouds
5:53 PM 37.0°F 33.1°F 86% 30.41 in 10.0 miles ESE 6.9 mph - N/A   Mostly Cloudy
6:20 PM 37.0°F 33.1°F 86% 30.39 in 10.0 miles ESE 6.9 mph - N/A   Scattered Clouds
6:53 PM 36.0°F 32.0°F 86% 30.39 in 10.0 miles ESE 8.1 mph - N/A   Partly Cloudy
7:41 PM 36.0°F 32.0°F 86% 30.38 in 10.0 miles SE 5.8 mph - N/A   Mostly Cloudy
7:53 PM 37.0°F 33.1°F 86% 30.39 in 10.0 miles SE 6.9 mph - N/A   Overcast
8:53 PM 37.9°F 33.1°F 83% 30.38 in 10.0 miles SE 8.1 mph - N/A   Overcast
9:53 PM 37.9°F 33.1°F 83% 30.37 in 10.0 miles SE 6.9 mph - N/A   Overcast
10:53 PM 37.9°F 33.1°F 83% 30.36 in 10.0 miles SE 5.8 mph - N/A   Overcast
11:53 PM 36.0°F 32.0°F 86% 30.36 in 10.0 miles SE 4.6 mph - N/A   Overcast
Moon Phase
Jan. 01 Jan. 04 Jan. 11 Jan. 18 Jan. 26
Sunrise:08:04 AM (PST) Moon Rise:09:31 PM (PST)
Sunset:04:31 PM (PST) Moon Set:09:58 AM (PST)

Copyright © 2014 The Weather Underground, Inc.